AHY107 UBBB-EGKK

Flight info

Callsign AHY107
Flight time N/A
Altitude 28000
Route RASAM N199 LUSAL/N0492F400 M747 BARAD DCT ROLIN/N0482F280 N644 KARDE/N0492F400 UN644 SIN UW90 INB UL746 ODERO T86 MATEL T746 ARGES DCT TEGRI DCT ABETI DCT RENKA L610 STAUB/N0446F240 L610 UPALA/N0485F400 Z744 LEPSA DCT MATUG DCT NEWPO DCT KONAN
Aircraft B788/H-SDE1E2E3FGHIJ2J3J4J5M1RWXY/LB1D1

Departure

Time 2025-09-08 13:31
Airport Heydar Aliyev International Airport (UBBB)

Arrival

Time N/A
Airport London Gatwick Airport (EGKK)
Time Latitude Longitude Altitude Speed Heading
2025-09-08 12:57 40.46553 50.05090 -4 ft 0 kts 65°
2025-09-08 13:00 40.46552 50.05087 20 ft 0 kts 65°
2025-09-08 13:16 40.46545 50.05069 20 ft 3 kts 65°
2025-09-08 13:16 40.46530 50.05020 24 ft 3 kts 73°
2025-09-08 13:16 40.46527 50.04995 22 ft 3 kts 90°
2025-09-08 13:17 40.46536 50.04949 23 ft 3 kts 94°
2025-09-08 13:17 40.46523 50.04919 22 ft 3 kts 16°
2025-09-08 13:18 40.46497 50.04922 22 ft 0 kts 340°
2025-09-08 13:20 40.46503 50.04919 22 ft 2 kts 340°
2025-09-08 13:20 40.46559 50.04915 21 ft 6 kts 15°
2025-09-08 13:21 40.46657 50.04976 20 ft 9 kts 27°
2025-09-08 13:21 40.46711 50.05008 20 ft 8 kts 23°
2025-09-08 13:21 40.46819 50.05047 20 ft 8 kts 358°
2025-09-08 13:22 40.46912 50.05074 20 ft 6 kts 55°
2025-09-08 13:23 40.46926 50.05263 21 ft 11 kts 88°
2025-09-08 13:23 40.46933 50.05525 21 ft 16 kts 86°
2025-09-08 13:24 40.46940 50.05808 24 ft 15 kts 89°
2025-09-08 13:24 40.46931 50.06065 22 ft 13 kts 134°
2025-09-08 13:25 40.46774 50.06094 20 ft 12 kts 179°
2025-09-08 13:25 40.46514 50.06096 20 ft 13 kts 179°
2025-09-08 13:26 40.46325 50.06100 20 ft 14 kts 179°
2025-09-08 13:27 40.46028 50.06104 20 ft 15 kts 179°
2025-09-08 13:27 40.45850 50.06147 20 ft 10 kts 112°
2025-09-08 13:28 40.45864 50.06304 16 ft 8 kts 32°
2025-09-08 13:28 40.45973 50.06320 18 ft 8 kts
2025-09-08 13:29 40.46126 50.06319 17 ft 21 kts
2025-09-08 13:29 40.46391 50.06317 19 ft 68 kts 359°
2025-09-08 13:29 40.47520 50.06301 45 ft 160 kts
2025-09-08 13:30 40.48861 50.06269 839 ft 170 kts
2025-09-08 13:31 40.52752 50.05296 2459 ft 225 kts 353°
2025-09-08 13:31 40.56192 50.04507 3638 ft 262 kts 351°
2025-09-08 13:32 40.59733 50.03294 5433 ft 271 kts 325°
2025-09-08 13:32 40.61490 49.99638 7044 ft 274 kts 276°
2025-09-08 13:33 40.61611 49.94501 7995 ft 287 kts 270°
2025-09-08 13:33 40.61631 49.91892 8001 ft 282 kts 270°
2025-09-08 13:33 40.61705 49.86775 8004 ft 278 kts 271°
2025-09-08 13:34 40.61772 49.81677 7993 ft 278 kts 271°
2025-09-08 13:35 40.61755 49.74044 9554 ft 280 kts 269°
2025-09-08 13:35 40.61786 49.68680 10425 ft 317 kts 269°
2025-09-08 13:36 40.61708 49.62470 11228 ft 347 kts 268°
2025-09-08 13:36 40.61657 49.56046 12734 ft 354 kts 268°
2025-09-08 13:37 40.61591 49.49541 14217 ft 360 kts 268°
2025-09-08 13:37 40.61557 49.46239 14923 ft 362 kts 268°
2025-09-08 13:37 40.61488 49.39569 16276 ft 366 kts 268°
2025-09-08 13:38 40.61412 49.32822 17604 ft 370 kts 268°
2025-09-08 13:39 40.61290 49.22611 19312 ft 377 kts 267°
2025-09-08 13:39 40.61192 49.15682 20436 ft 379 kts 266°
2025-09-08 13:40 40.61047 49.08698 21472 ft 383 kts 266°
2025-09-08 13:40 40.60922 49.01865 22408 ft 387 kts 266°
2025-09-08 13:40 40.60851 48.98316 22868 ft 389 kts 266°
2025-09-08 13:41 40.60633 48.87628 24109 ft 394 kts 266°
2025-09-08 13:41 40.60557 48.84016 24477 ft 396 kts 266°
2025-09-08 13:43 40.60184 48.66911 26134 ft 404 kts 266°
2025-09-08 13:44 40.59563 48.40749 28583 ft 416 kts 266°
2025-09-08 13:47 40.58665 48.06673 32760 ft 402 kts 266°
2025-09-08 13:48 40.62342 47.80945 33963 ft 444 kts 285°
2025-09-08 13:51 40.71622 47.48149 33967 ft 466 kts 285°
2025-09-08 13:53 40.80597 47.16097 33945 ft 464 kts 285°
2025-09-08 13:55 40.89413 46.84042 33967 ft 464 kts 284°
2025-09-08 13:57 40.98103 46.51909 33972 ft 464 kts 284°
2025-09-08 13:59 41.07811 46.15670 33983 ft 465 kts 284°
2025-09-08 14:01 41.15335 45.87387 33986 ft 465 kts 284°
2025-09-08 14:03 41.24907 45.50889 34004 ft 465 kts 284°
2025-09-08 14:05 41.32241 45.22487 34013 ft 464 kts 283°
2025-09-08 14:07 41.38456 44.86425 34037 ft 461 kts 275°
2025-09-08 14:09 41.41890 44.56872 34075 ft 462 kts 275°
2025-09-08 14:11 41.46195 44.18790 34101 ft 462 kts 275°
2025-09-08 14:13 41.49462 43.89093 34088 ft 463 kts 275°
2025-09-08 14:15 41.53552 43.50853 34049 ft 464 kts 274°
2025-09-08 14:17 41.56658 43.20950 34049 ft 465 kts 274°
2025-09-08 14:19 41.60573 42.82100 34029 ft 472 kts 274°
2025-09-08 14:21 41.63560 42.51509 33994 ft 477 kts 274°
2025-09-08 14:23 41.67324 42.11698 33969 ft 482 kts 274°
2025-09-08 14:25 41.70185 41.80366 33920 ft 488 kts 274°
2025-09-08 14:27 41.73383 41.44168 33918 ft 492 kts 273°
2025-09-08 14:29 41.76471 41.07876 35523 ft 487 kts 272°
2025-09-08 14:31 41.79420 40.71860 35896 ft 486 kts 272°
2025-09-08 14:33 41.81152 40.37262 35917 ft 486 kts 269°
2025-09-08 14:35 41.82626 40.01027 35925 ft 488 kts 269°
2025-09-08 14:36 41.83823 39.69226 35920 ft 489 kts 269°
2025-09-08 14:39 41.85238 39.28196 35924 ft 490 kts 269°
2025-09-08 14:41 41.86378 38.91630 35921 ft 490 kts 269°
2025-09-08 14:43 41.87518 38.50615 35906 ft 488 kts 268°
2025-09-08 14:45 41.88302 38.18750 35912 ft 488 kts 268°
2025-09-08 14:47 41.89092 37.82269 35911 ft 490 kts 268°
2025-09-08 14:49 41.89768 37.45721 35908 ft 490 kts 268°
2025-09-08 14:51 41.90328 37.09097 35908 ft 492 kts 268°
2025-09-08 14:53 41.92579 36.72223 35917 ft 497 kts 272°
2025-09-08 14:55 41.94976 36.35150 35934 ft 500 kts 272°
2025-09-08 14:57 41.97269 35.97824 35934 ft 503 kts 272°
2025-09-08 14:59 41.99444 35.60406 35943 ft 502 kts 271°
2025-09-08 15:01 42.01495 35.23011 35957 ft 501 kts 271°
2025-09-08 15:03 42.01199 34.85829 35969 ft 497 kts 264°
2025-09-08 15:05 41.99381 34.48818 35977 ft 495 kts 264°
2025-09-08 15:07 41.97439 34.11779 35982 ft 499 kts 264°
2025-09-08 15:08 41.95626 33.79076 35984 ft 503 kts 265°
2025-09-08 15:11 42.01489 33.37627 35987 ft 505 kts 283°
2025-09-08 15:13 42.08546 33.01078 35978 ft 505 kts 284°
2025-09-08 15:15 42.15944 32.64532 35970 ft 506 kts 284°
2025-09-08 15:17 42.23250 32.27839 35966 ft 506 kts 284°
2025-09-08 15:19 42.30436 31.91096 35965 ft 507 kts 284°
2025-09-08 15:21 42.37257 31.55665 35968 ft 507 kts 284°
2025-09-08 15:23 42.44214 31.18833 35974 ft 506 kts 283°
2025-09-08 15:25 42.51049 30.81902 35990 ft 505 kts 283°
2025-09-08 15:27 42.57751 30.44947 35991 ft 504 kts 283°
2025-09-08 15:29 42.66548 30.08877 36009 ft 506 kts 292°
2025-09-08 15:31 42.77432 29.73658 36015 ft 506 kts 291°
2025-09-08 15:32 42.86893 29.42662 36017 ft 506 kts 291°
2025-09-08 15:35 43.00278 28.98175 36024 ft 507 kts 291°
2025-09-08 15:37 43.11676 28.68467 36040 ft 508 kts 305°
2025-09-08 15:39 43.28388 28.37139 36043 ft 510 kts 305°
2025-09-08 15:41 43.45066 28.05535 36033 ft 511 kts 305°
2025-09-08 15:43 43.61680 27.73711 36037 ft 512 kts 304°
2025-09-08 15:45 43.78219 27.41683 36035 ft 512 kts 304°
2025-09-08 15:47 43.94671 27.09473 36030 ft 512 kts 304°
2025-09-08 15:48 44.08907 26.81067 36057 ft 511 kts 299°
2025-09-08 15:51 44.25040 26.42493 36047 ft 512 kts 299°
2025-09-08 15:53 44.39255 26.08078 36039 ft 510 kts 299°
2025-09-08 15:55 44.53306 25.73649 36040 ft 513 kts 299°
2025-09-08 15:56 44.65584 25.43216 36049 ft 512 kts 298°
2025-09-08 15:59 44.83028 24.99403 36055 ft 514 kts 298°
2025-09-08 16:00 44.93401 24.73023 36067 ft 513 kts 297°
2025-09-08 16:03 45.08833 24.33304 36085 ft 511 kts 297°
2025-09-08 16:04 45.20689 24.02398 36101 ft 511 kts 297°
2025-09-08 16:07 45.35240 23.63985 36123 ft 508 kts 297°
2025-09-08 16:09 45.48443 23.28662 36107 ft 504 kts 297°
2025-09-08 16:11 45.62799 22.89725 36085 ft 502 kts 297°
2025-09-08 16:13 45.71871 22.64827 36070 ft 499 kts 297°
2025-09-08 16:15 45.86131 22.25223 36042 ft 496 kts 297°
2025-09-08 16:17 45.97062 21.94462 36021 ft 494 kts 297°
2025-09-08 16:19 46.09394 21.59331 36001 ft 490 kts 297°
2025-09-08 16:21 46.21530 21.24294 36000 ft 487 kts 297°
2025-09-08 16:23 46.35568 20.85465 35997 ft 482 kts 299°
2025-09-08 16:25 46.46563 20.55550 35997 ft 480 kts 299°
2025-09-08 16:27 46.59768 20.19190 35995 ft 451 kts 299°
2025-09-08 16:29 46.69943 19.90833 36002 ft 452 kts 298°
2025-09-08 16:31 46.82957 19.54118 35997 ft 454 kts 298°
2025-09-08 16:33 46.92996 19.25439 36010 ft 454 kts 298°
2025-09-08 16:35 47.04456 18.92318 36012 ft 455 kts 297°
2025-09-08 16:37 47.15821 18.59052 36011 ft 456 kts 297°
2025-09-08 16:39 47.27106 18.25596 36019 ft 457 kts 297°
2025-09-08 16:41 47.38314 17.91932 36015 ft 457 kts 296°
2025-09-08 16:43 47.49419 17.58139 36014 ft 458 kts 296°
2025-09-08 16:45 47.60462 17.24083 36015 ft 460 kts 295°
2025-09-08 16:47 47.72274 16.85083 36035 ft 461 kts 292°
2025-09-08 16:49 47.80734 16.54306 36049 ft 459 kts 292°
2025-09-08 16:51 47.90329 16.18917 36054 ft 463 kts 292°
2025-09-08 16:53 47.99470 15.84700 36061 ft 464 kts 291°
2025-09-08 16:55 48.08497 15.50405 36064 ft 466 kts 291°